Regional Weather Roundup
Issued by NWS Binghamton, NY

Home | Current Version | Previous Version | Text Only | Print | Product List | Glossary On
Versions: 1 2 3 4 5 6 7 8 9 10 11 12 13 14 15 16 17 18 19 20 21 22 23 24 25 26 27
000
ASUS41 KBGM 031210
RWRBGM

REGIONAL WEATHER ROUNDUP
NATIONAL WEATHER SERVICE BINGHAMTON NY
700 AM EST SAT DEC 03 2016

Note: "fair" indicates few or no clouds below 12,000 feet with no
significant weather and/or obstructions to visibility.

* = Station(s) that does not report precipitation, such as rain,
snow, etc, also no thunder or fog.

NYZ009-015>018-022>025-036-037-044>046-055>057-062-031300
...Central New York...

CITY           SKY/WX    TMP DP  RH WIND       PRES   REMARKS
Binghamton     MIX PCPN  31  26  82 NW15G21   30.01R WCI  20
Cortland       CLOUDY    34  30  86 W7        30.04R WCI  28
Dansville      CLOUDY    38  28  67 W12       30.11R WCI  30
Elmira         CLOUDY    38  28  67 W9        30.07  WCI  31
Seneca Falls   CLOUDY    37  30  75 NW14G20   30.09R WCI  29
Ithaca         FLURRIES  33  28  81 NW13      30.06R WCI  24
Hamilton       CLOUDY    32  28  86 NW10      30.01R WCI  24
Monticello     CLOUDY    34  27  75 NW13G26   29.97R WCI  25
Norwich        MOCLDY    34  28  80 NW9       30.02R WCI  26
Oneonta        MOCLDY    30  30 100 NW12G17   29.95R WCI  21
Penn Yan       FLURRIES  36  29  75 NW8G16    30.08R WCI  30
Rome           CLOUDY    34  32  92 W8        30.02R WCI  27
Sidney         CLOUDY    34  28  80 W13       30.01R WCI  25
Syracuse       FLURRIES  36  28  73 W15G23    30.05R WCI  27
$$

PAZ038>040-043-044-047-048-072-031300
...Northeast Pennsylvania...

CITY           SKY/WX    TMP DP  RH WIND       PRES   REMARKS
Hazleton       CLOUDY    36  30  80 W12G20    30.04R WCI  27
Scranton       CLOUDY    38  29  70 NW8       30.04R WCI  32
$$
&&
KEY
WCI = Wind Chill Index
VSB = Visibility
HX  = Heat Index
$$




USA.gov is the U.S. government's official web portal to all federal, state and local government web resources and services.